CST,Max TemperatureF,Mean TemperatureF,Min TemperatureF,Max Dew PointF,MeanDew PointF,Min DewpointF,Max Humidity, Mean Humidity, Min Humidity, Max Sea Level PressureIn, Mean Sea Level PressureIn, Min Sea Level PressureIn, Max VisibilityMiles, Mean VisibilityMiles, Min VisibilityMiles, Max Wind SpeedMPH, Mean Wind SpeedMPH, Max Gust SpeedMPH,PrecipitationIn, CloudCover, Events, WindDirDegrees
2012-11-1,51,40,28,31,24,19,77,57,33,29.90,29.87,29.83,10,10,10,10,7,,0.00,5,,303
2012-11-2,48,40,31,32,28,22,91,68,40,30.14,30.05,29.91,10,10,10,9,7,,0.00,0,,14
2012-11-3,44,40,36,35,33,30,91,77,68,30.21,30.17,30.12,10,10,10,10,5,,0.00,6,,58
2012-11-4,48,39,29,33,29,23,99,75,39,30.24,30.20,30.17,10,10,7,12,5,16,T,2,,5
2012-11-5,43,36,29,36,30,27,100,85,63,30.20,30.17,30.11,10,7,0,10,3,,0.00,5,Fog,82
2012-11-6,39,33,27,39,33,25,100,94,78,30.12,29.97,29.87,10,5,2,9,5,,0.15,6,Rain,166
2012-11-7,46,43,39,41,39,38,100,91,74,30.16,30.05,29.88,7,4,1,7,4,,0.04,8,,21
2012-11-8,46,42,37,41,36,33,100,86,65,30.22,30.15,30.09,10,6,2,12,5,18,0.00,5,,216
2012-11-9,58,47,35,46,40,32,98,82,63,30.11,30.04,29.98,10,7,2,12,8,,0.00,3,,162
2012-11-10,69,60,51,57,50,45,94,73,56,29.99,29.94,29.84,10,10,7,26,12,36,0.12,3,Rain-Thunderstorm,181
2012-11-11,69,54,38,55,49,35,100,74,55,29.97,29.88,29.76,10,9,4,37,20,50,0.49,5,Rain,207
2012-11-12,38,33,27,34,25,21,94,75,62,30.35,30.16,29.97,10,10,5,23,17,31,0.03,7,Rain,273
2012-11-13,39,31,22,24,21,18,86,69,49,30.51,30.46,30.35,10,10,4,9,6,16,0.00,0,,255
2012-11-14,45,36,27,27,26,23,88,73,49,30.52,30.46,30.38,10,10,10,17,7,,0.00,0,,165
2012-11-15,47,37,27,32,28,26,99,78,49,30.40,30.36,30.32,10,7,2,7,5,,0.00,0,,185
2012-11-16,53,41,28,32,29,26,94,69,35,30.48,30.44,30.37,10,8,4,7,4,,0.00,0,,165
2012-11-17,55,42,29,32,30,26,89,68,42,30.55,30.49,30.44,10,7,4,10,5,,0.00,0,,151
2012-11-18,56,45,33,35,32,29,92,68,44,30.45,30.38,30.32,10,9,5,10,6,,0.00,0,,152
2012-11-19,59,49,39,41,36,32,86,67,44,30.32,30.21,30.11,10,10,10,15,8,,T,3,,179
2012-11-20,57,48,38,46,43,38,100,80,63,30.18,30.11,30.07,10,6,0,9,4,,0.05,6,Fog,331
2012-11-21,53,45,36,47,41,35,100,97,79,30.24,30.18,30.11,7,2,0,10,3,,0.00,5,Fog-Rain-Snow,204
2012-11-22,63,52,41,50,44,36,100,81,53,30.10,29.93,29.80,10,6,0,29,12,36,0.09,3,Fog-Rain-Thunderstorm,197
2012-11-23,41,34,27,34,22,17,89,68,58,30.22,30.08,29.91,10,10,10,30,20,40,0.00,7,,300
2012-11-24,32,29,25,23,19,16,78,68,57,30.26,30.16,29.99,10,10,10,15,9,20,0.00,6,,271
2012-11-25,44,36,27,26,24,22,88,68,48,30.07,29.92,29.85,10,10,10,13,8,,0.00,2,,281
2012-11-26,35,29,23,25,19,13,84,63,47,30.37,30.24,30.08,10,10,10,10,6,,0.00,2,,351
2012-11-27,33,25,16,16,12,9,79,60,38,30.43,30.33,30.26,10,10,10,12,6,,0.00,1,,281
2012-11-28,44,33,22,24,21,16,83,62,39,30.38,30.31,30.25,10,10,10,10,8,,0.00,2,,249
2012-11-29,51,39,26,34,30,24,90,73,49,30.28,30.17,30.09,10,9,7,13,8,17,0.00,1,,180
2012-11-30,52,44,35,37,34,31,99,74,50,30.14,30.09,30.05,10,9,3,10,6,,0.00,4,,114